AKDT,Max TemperatureF,Mean TemperatureF,Min TemperatureF,Max Dew PointF,MeanDew PointF,Min DewpointF,Max Humidity, Mean Humidity, Min Humidity, Max Sea Level PressureIn, Mean Sea Level PressureIn, Min Sea Level PressureIn, Max VisibilityMiles, Mean VisibilityMiles, Min VisibilityMiles, Max Wind SpeedMPH, Mean Wind SpeedMPH, Max Gust SpeedMPH,PrecipitationIn, CloudCover, Events, WindDirDegrees
2012-4-1,16,6,-4,4,-3,-9,0,0,0,30.05,29.98,29.87,10,10,10,13,3,14,0.00,1,,340
2012-4-2,10,1,-9,2,-5,-12,0,0,0,30.05,29.98,29.86,10,10,9,13,2,13,0.00,1,,329
2012-4-3,9,0,-9,4,-2,-11,0,0,0,29.84,29.81,29.79,10,8,2,6,2,7,0.01,6,Snow,332
2012-4-4,19,3,-13,11,-2,-15,0,0,0,29.86,29.82,29.73,10,10,8,12,4,13,T,4,Snow,299
2012-4-5,18,13,7,16,11,2,0,0,0,29.91,29.65,29.51,10,4,1,21,10,24,0.14,8,Snow,257
2012-4-6,8,3,-3,5,-2,-7,0,0,0,30.31,30.15,29.92,10,7,1,18,9,22,T,7,Snow,155
2012-4-7,25,12,-1,23,8,-10,0,0,0,30.31,30.17,30.04,10,6,0,25,16,31,0.07,7,Snow,78
2012-4-8,34,29,23,31,26,21,0,0,0,30.04,29.83,29.66,10,4,1,35,25,43,0.11,8,Snow,92
2012-4-9,33,29,24,30,29,25,0,0,0,29.94,29.81,29.66,10,8,2,29,17,38,T,8,Snow,133
2012-4-10,35,28,21,26,23,20,0,0,0,29.96,29.94,29.93,10,10,10,13,8,15,0.00,5,,20
2012-4-11,32,24,15,25,20,13,0,0,0,30.04,30.02,29.97,10,10,10,8,2,13,0.00,3,,281
2012-4-12,33,25,17,24,18,13,0,0,0,30.09,30.08,30.05,10,10,10,14,3,10,0.03,3,,321
2012-4-13,27,20,12,20,16,9,0,0,0,30.08,30.03,29.96,10,10,10,10,1,12,0.00,1,,33
2012-4-14,25,16,6,21,15,5,0,0,0,29.96,29.89,29.82,10,10,10,6,1,8,0.00,1,,270
2012-4-15,30,20,9,25,18,9,0,0,0,29.82,29.80,29.78,10,10,10,16,1,17,0.00,0,,277
2012-4-16,30,22,13,25,19,12,0,0,0,29.85,29.82,29.80,10,10,10,13,1,15,0.00,1,,281
2012-4-17,26,18,9,23,17,8,0,0,0,29.87,29.85,29.81,10,8,1,6,1,7,0.00,3,Fog,220
2012-4-18,29,21,12,24,19,12,0,0,0,29.96,29.89,29.82,10,8,2,6,1,8,0.00,5,,246
2012-4-19,26,20,14,21,18,13,0,0,0,29.99,29.96,29.92,10,10,7,12,4,14,0.00,3,,265
2012-4-20,25,17,9,22,16,7,0,0,0,29.92,29.90,29.88,10,10,10,9,3,10,0.00,5,,235
2012-4-21,26,24,21,25,22,19,0,0,0,30.02,29.98,29.91,10,8,3,10,5,13,T,8,Snow,202
2012-4-22,31,27,23,25,23,20,0,0,0,30.03,29.97,29.86,10,8,4,16,11,20,T,8,Snow,76
2012-4-23,42,36,29,31,27,23,0,0,0,29.87,29.83,29.81,10,10,10,13,8,15,0.00,4,,47
2012-4-24,43,38,33,31,30,28,0,0,0,30.05,29.98,29.88,10,10,10,7,3,8,0.00,4,,310
2012-4-25,40,32,24,31,27,23,0,0,0,30.06,30.04,30.00,10,10,9,8,1,10,0.00,1,,216
2012-4-26,42,35,27,31,27,24,0,0,0,30.00,29.96,29.91,10,10,10,10,3,12,0.00,2,,269
2012-4-27,36,31,25,31,26,22,0,0,0,29.91,29.80,29.72,10,10,10,14,4,14,0.00,5,,154
2012-4-28,33,29,24,29,26,21,0,0,0,29.76,29.73,29.72,10,10,10,10,3,13,0.00,6,,206
2012-4-29,28,23,17,21,17,12,0,0,0,29.98,29.88,29.76,10,10,10,10,4,12,0.00,2,,189
2012-4-30,29,22,15,22,17,11,0,0,0,30.04,30.02,29.99,10,10,2,16,6,20,0.00,6,Fog,287